timestamp,wind_dir_avg,wind_spd_avg,wind_spd_max_dir,wind_spd_gust,battery_voltage,lat,long
2020-01-08 00:04:01+00:00,232.0,5.27,232.0,5.91,12.65,47.59359,-54.27349
2020-01-08 00:14:01+00:00,237.0,5.49,240.0,6.2,12.65,47.59359,-54.27349
2020-01-08 00:24:01+00:00,199.0,5.19,191.0,6.5,12.65,47.59359,-54.27349
2020-01-08 00:34:01+00:00,208.0,5.58,208.0,6.31,12.65,47.59359,-54.27349
2020-01-08 00:44:01+00:00,212.0,6.59,215.0,7.74,12.65,47.59359,-54.27349
2020-01-08 00:54:01+00:00,207.0,5.68,219.0,7.47,12.65,47.59359,-54.27349
2020-01-08 01:04:01+00:00,196.0,5.42,196.0,5.92,12.65,47.59359,-54.27349
2020-01-08 01:14:01+00:00,230.0,6.16,233.0,7.83,12.57,47.59359,-54.27349
2020-01-08 01:24:01+00:00,241.0,5.78,250.0,8.09,12.57,47.59359,-54.27349
2020-01-08 01:34:01+00:00,242.0,3.26,253.0,3.77,12.57,47.59359,-54.27349
2020-01-08 01:44:01+00:00,263.0,2.38,260.0,3.52,12.57,47.59359,-54.27349
2020-01-08 01:54:01+00:00,318.0,5.74,316.0,6.38,12.57,47.59359,-54.27349
2020-01-08 02:04:01+00:00,334.0,3.57,329.0,3.99,12.57,47.59359,-54.27349
2020-01-08 02:14:01+00:00,272.0,1.07,274.0,1.57,12.57,47.59359,-54.27349
2020-01-08 02:24:01+00:00,256.0,1.96,259.0,2.43,12.57,47.59359,-54.27349
2020-01-08 02:34:01+00:00,273.0,1.82,271.0,2.69,12.57,47.59359,-54.27349
2020-01-08 02:44:01+00:00,284.0,3.24,286.0,3.6,12.57,47.59359,-54.27349
2020-01-08 02:54:01+00:00,283.0,2.7,293.0,3.1,12.57,47.59359,-54.27349
2020-01-08 03:04:01+00:00,275.0,2.91,269.0,3.55,12.57,47.59359,-54.27349
2020-01-08 03:14:01+00:00,290.0,2.38,273.0,2.95,12.57,47.59359,-54.27349
2020-01-08 03:24:01+00:00,290.0,2.89,297.0,3.31,12.57,47.59359,-54.27349
2020-01-08 03:34:01+00:00,282.0,3.63,271.0,5.38,12.57,47.59359,-54.27349
2020-01-08 03:44:01+00:00,281.0,2.94,281.0,3.55,12.57,47.59359,-54.27349
2020-01-08 03:54:01+00:00,272.0,3.28,280.0,3.65,12.57,47.59359,-54.27349
2020-01-08 04:04:01+00:00,260.0,4.29,261.0,4.92,12.57,47.59359,-54.27349
2020-01-08 04:14:01+00:00,264.0,5.83,263.0,6.25,12.57,47.59359,-54.27349
2020-01-08 04:24:01+00:00,272.0,5.89,270.0,6.5,12.57,47.59359,-54.27349
2020-01-08 04:34:01+00:00,270.0,4.85,272.0,5.69,12.57,47.59359,-54.27349
2020-01-08 04:44:01+00:00,277.0,4.29,277.0,4.73,12.57,47.59359,-54.27349
2020-01-08 04:54:01+00:00,268.0,3.86,272.0,4.29,12.57,47.59359,-54.27349
2020-01-08 05:04:01+00:00,272.0,3.69,260.0,4.16,12.57,47.59359,-54.27349
2020-01-08 05:14:01+00:00,273.0,3.64,275.0,4.26,12.57,47.59359,-54.27349
2020-01-08 05:24:01+00:00,273.0,3.74,269.0,4.37,12.57,47.59359,-54.27349
2020-01-08 05:34:01+00:00,277.0,5.51,276.0,6.39,12.57,47.59359,-54.27349
2020-01-08 05:44:01+00:00,280.0,5.43,283.0,6.3,12.57,47.59359,-54.27349
2020-01-08 05:54:01+00:00,274.0,4.68,276.0,5.27,12.57,47.59359,-54.27349
2020-01-08 06:04:01+00:00,237.0,4.13,243.0,4.77,12.57,47.59359,-54.27349
2020-01-08 06:14:01+00:00,254.0,4.03,255.0,4.58,12.57,47.59359,-54.27349
2020-01-08 06:24:01+00:00,249.0,4.04,251.0,5.13,12.57,47.59359,-54.27349
2020-01-08 06:34:01+00:00,258.0,3.21,255.0,3.93,12.57,47.59359,-54.27349
2020-01-08 06:44:01+00:00,261.0,3.52,264.0,3.97,12.57,47.59359,-54.27349
2020-01-08 06:54:01+00:00,276.0,3.34,284.0,3.77,12.57,47.59359,-54.27349
2020-01-08 07:04:01+00:00,233.0,2.91,231.0,4.87,12.57,47.59359,-54.27349
2020-01-08 07:14:01+00:00,251.0,4.0,249.0,4.37,12.49,47.59359,-54.27349
2020-01-08 07:24:01+00:00,233.0,5.08,232.0,5.63,12.49,47.59359,-54.27349
2020-01-08 07:34:01+00:00,248.0,3.96,241.0,4.94,12.49,47.59359,-54.27349
2020-01-08 07:44:01+00:00,237.0,3.21,237.0,3.66,12.49,47.59359,-54.27349
2020-01-08 07:54:01+00:00,259.0,3.27,255.0,3.85,12.49,47.59359,-54.27349
2020-01-08 08:04:01+00:00,237.0,2.81,251.0,3.52,12.49,47.59359,-54.27349
2020-01-08 08:14:01+00:00,236.0,3.84,236.0,4.61,12.49,47.59359,-54.27349
2020-01-08 08:24:01+00:00,251.0,4.06,253.0,4.8,12.49,47.59359,-54.27349
2020-01-08 08:34:01+00:00,250.0,4.01,252.0,4.67,12.49,47.59359,-54.27349
2020-01-08 08:44:01+00:00,248.0,3.94,239.0,4.68,12.49,47.59359,-54.27349
2020-01-08 08:54:01+00:00,240.0,5.27,244.0,6.36,12.49,47.59359,-54.27349
2020-01-08 09:04:01+00:00,241.0,5.17,241.0,6.19,12.49,47.59359,-54.27349
2020-01-08 09:14:01+00:00,241.0,5.08,234.0,6.0,12.49,47.59359,-54.27349
2020-01-08 09:24:01+00:00,237.0,5.32,236.0,6.58,12.49,47.59359,-54.27349
2020-01-08 09:34:01+00:00,247.0,4.55,255.0,5.23,12.49,47.59359,-54.27349
2020-01-08 09:44:01+00:00,242.0,4.84,242.0,5.3,12.49,47.59359,-54.27349
2020-01-08 09:54:01+00:00,236.0,4.03,232.0,4.46,12.49,47.59359,-54.27349
2020-01-08 10:04:01+00:00,231.0,3.39,225.0,3.96,12.49,47.59359,-54.27349
2020-01-08 10:14:01+00:00,241.0,3.17,240.0,3.56,12.49,47.59359,-54.27349
2020-01-08 10:24:01+00:00,244.0,3.1,248.0,3.67,12.49,47.59359,-54.27349
2020-01-08 10:34:01+00:00,259.0,3.53,263.0,4.14,12.49,47.59359,-54.27349
2020-01-08 10:44:01+00:00,256.0,4.15,256.0,4.73,12.49,47.59359,-54.27349
2020-01-08 10:54:01+00:00,235.0,2.89,237.0,3.59,12.49,47.59359,-54.27349
2020-01-08 11:04:01+00:00,233.0,3.4,232.0,4.08,12.49,47.59359,-54.27349
2020-01-08 11:14:01+00:00,233.0,4.14,234.0,4.58,12.49,47.59359,-54.27349
2020-01-08 11:24:01+00:00,228.0,4.21,232.0,4.79,12.49,47.59359,-54.27349
2020-01-08 11:34:01+00:00,235.0,4.67,233.0,5.36,12.49,47.59359,-54.27349
2020-01-08 11:44:01+00:00,227.0,4.53,231.0,4.95,12.49,47.59359,-54.27349
2020-01-08 11:54:01+00:00,201.0,3.77,194.0,4.62,12.49,47.59359,-54.27349
2020-01-08 12:04:01+00:00,194.0,4.39,193.0,4.84,12.49,47.59359,-54.27349
2020-01-08 12:14:01+00:00,198.0,4.58,202.0,5.28,12.57,47.59359,-54.27349
2020-01-08 12:24:01+00:00,178.0,4.14,178.0,4.84,12.57,47.59359,-54.27349
2020-01-08 12:34:01+00:00,170.0,4.0,165.0,4.56,12.57,47.59359,-54.27349
2020-01-08 12:44:01+00:00,181.0,4.3,181.0,4.95,12.57,47.59359,-54.27349
2020-01-08 12:54:01+00:00,188.0,3.83,191.0,4.77,12.57,47.59359,-54.27349
2020-01-08 13:04:01+00:00,180.0,3.73,185.0,4.21,12.57,47.59359,-54.27349
2020-01-08 13:14:01+00:00,189.0,4.47,190.0,4.82,12.81,47.59359,-54.27349
2020-01-08 13:24:01+00:00,176.0,3.76,178.0,4.05,12.81,47.59359,-54.27349
2020-01-08 13:34:01+00:00,182.0,4.13,184.0,4.58,12.81,47.59359,-54.27349
2020-01-08 13:44:01+00:00,172.0,3.34,174.0,3.73,12.81,47.59359,-54.27349
2020-01-08 13:54:01+00:00,179.0,4.11,182.0,4.55,12.81,47.59359,-54.27349
2020-01-08 14:04:01+00:00,169.0,3.7,171.0,4.08,12.81,47.59359,-54.27349
2020-01-08 14:14:01+00:00,166.0,3.77,164.0,4.4,12.97,47.59359,-54.27349
2020-01-08 14:24:01+00:00,136.0,3.23,137.0,3.9,12.97,47.59359,-54.27349
2020-01-08 14:34:01+00:00,148.0,3.73,146.0,4.05,12.97,47.59359,-54.27349
2020-01-08 14:44:01+00:00,160.0,3.4,161.0,3.96,12.97,47.59359,-54.27349
2020-01-08 14:54:01+00:00,156.0,3.79,158.0,4.55,12.97,47.59359,-54.27349
2020-01-08 15:04:01+00:00,142.0,3.97,139.0,4.71,12.97,47.59359,-54.27349
2020-01-08 15:14:01+00:00,121.0,2.91,144.0,5.3,13.05,47.59359,-54.27349
2020-01-08 15:24:01+00:00,116.0,3.28,119.0,4.86,13.05,47.59359,-54.27349
2020-01-08 15:34:01+00:00,96.0,2.9,103.0,4.85,13.05,47.59359,-54.27349
2020-01-08 15:44:01+00:00,117.0,2.24,135.0,3.35,13.05,47.59359,-54.27349
2020-01-08 15:54:01+00:00,127.0,3.81,111.0,5.7,13.05,47.59359,-54.27349
2020-01-08 16:04:01+00:00,143.0,4.15,145.0,4.88,13.05,47.59359,-54.27349
2020-01-08 16:14:01+00:00,145.0,5.19,143.0,5.94,12.89,47.59359,-54.27349
2020-01-08 16:24:01+00:00,136.0,5.19,141.0,6.41,12.89,47.59359,-54.27349
2020-01-08 16:34:01+00:00,132.0,6.25,137.0,6.93,12.89,47.59359,-54.27349
2020-01-08 16:44:01+00:00,118.0,3.42,139.0,6.22,12.89,47.59359,-54.27349
2020-01-08 16:54:01+00:00,126.0,3.72,130.0,7.52,12.89,47.59359,-54.27349
2020-01-08 17:04:01+00:00,126.0,4.83,132.0,7.6,12.89,47.59359,-54.27349
2020-01-08 17:14:01+00:00,139.0,7.09,128.0,9.02,12.89,47.59359,-54.27349
2020-01-08 17:24:01+00:00,135.0,9.67,131.0,11.4,12.89,47.59359,-54.27349
2020-01-08 17:34:01+00:00,140.0,8.55,135.0,10.57,12.89,47.59359,-54.27349
2020-01-08 17:44:01+00:00,138.0,8.12,135.0,10.55,12.89,47.59359,-54.27349
2020-01-08 17:54:01+00:00,129.0,4.77,144.0,7.17,12.89,47.59359,-54.27349
2020-01-08 18:04:01+00:00,120.0,5.09,136.0,7.68,12.89,47.59359,-54.27349
2020-01-08 18:14:01+00:00,137.0,5.2,135.0,6.25,12.73,47.59359,-54.27349
2020-01-08 18:24:01+00:00,112.0,3.35,109.0,5.32,12.73,47.59359,-54.27349
2020-01-08 18:34:01+00:00,136.0,7.71,142.0,9.46,12.73,47.59359,-54.27349
2020-01-08 18:44:01+00:00,138.0,8.54,129.0,10.24,12.73,47.59359,-54.27349
2020-01-08 18:54:01+00:00,126.0,6.48,139.0,10.51,12.73,47.59359,-54.27349
2020-01-08 19:04:01+00:00,116.0,7.93,105.0,11.53,12.73,47.59359,-54.27349
2020-01-08 19:14:01+00:00,119.0,5.6,143.0,8.97,12.73,47.59359,-54.27349
2020-01-08 19:24:01+00:00,118.0,5.79,126.0,9.68,12.73,47.59359,-54.27349
2020-01-08 19:34:01+00:00,122.0,6.39,124.0,9.79,12.73,47.59359,-54.27349
2020-01-08 19:44:01+00:00,122.0,5.65,130.0,8.92,12.73,47.59359,-54.27349
2020-01-08 19:54:01+00:00,132.0,9.53,127.0,12.8,12.73,47.59359,-54.27349
2020-01-08 20:04:01+00:00,129.0,7.55,135.0,11.36,12.73,47.59359,-54.27349
2020-01-08 20:14:01+00:00,132.0,8.64,137.0,10.56,12.57,47.59359,-54.27349
2020-01-08 20:24:01+00:00,112.0,5.35,120.0,8.75,12.57,47.59359,-54.27349
2020-01-08 20:34:01+00:00,106.0,5.33,91.0,8.34,12.57,47.59359,-54.27349
2020-01-08 20:44:01+00:00,116.0,8.92,129.0,15.55,12.57,47.59359,-54.27349
2020-01-08 20:54:01+00:00,110.0,5.96,137.0,10.14,12.57,47.59359,-54.27349
2020-01-08 21:04:01+00:00,101.0,6.62,105.0,10.15,12.57,47.59359,-54.27349
2020-01-08 21:14:01+00:00,108.0,7.04,108.0,10.43,12.49,47.59359,-54.27349
2020-01-08 21:24:01+00:00,108.0,6.48,122.0,10.16,12.49,47.59359,-54.27349
2020-01-08 21:34:01+00:00,109.0,6.44,90.0,10.82,12.49,47.59359,-54.27349
2020-01-08 21:44:01+00:00,105.0,4.9,103.0,9.36,12.49,47.59359,-54.27349
2020-01-08 21:54:01+00:00,105.0,5.57,130.0,10.08,12.49,47.59359,-54.27349
2020-01-08 22:04:01+00:00,115.0,8.76,111.0,14.01,12.49,47.59359,-54.27349
2020-01-08 22:14:01+00:00,104.0,4.77,103.0,8.01,12.49,47.59359,-54.27349
2020-01-08 22:24:01+00:00,115.0,7.9,120.0,13.39,12.49,47.59359,-54.27349
2020-01-08 22:34:01+00:00,117.0,7.16,125.0,11.66,12.49,47.59359,-54.27349
2020-01-08 22:44:01+00:00,122.0,6.25,137.0,12.33,12.49,47.59359,-54.27349
2020-01-08 22:54:01+00:00,131.0,5.96,126.0,8.86,12.49,47.59359,-54.27349
2020-01-08 23:04:01+00:00,141.0,10.0,143.0,12.89,12.49,47.59359,-54.27349
2020-01-08 23:14:01+00:00,132.0,6.0,145.0,8.94,12.49,47.59359,-54.27349
2020-01-08 23:24:01+00:00,100.0,3.33,103.0,5.32,12.49,47.59359,-54.27349
2020-01-08 23:34:01+00:00,31.0,4.95,43.0,6.09,12.49,47.59359,-54.27349
2020-01-08 23:44:01+00:00,64.0,5.83,67.0,6.99,12.49,47.59359,-54.27349
2020-01-08 23:54:01+00:00,67.0,5.35,65.0,6.08,12.49,47.59359,-54.27349
